Weather History for Anaktuvuk Pass, AK

Change the Weather History Date:

Saturday, January 19, 2013

  Actual Average Record
Temperature  
Mean Temperature -26 °F -  
Max Temperature -22 °F -1 °F 21 °F (2001)
Min Temperature -31 °F -13 °F -32 °F (1999)
Degree Days  
Heating Degree Days 92    
Moisture  
Dew Point -29 °F    
Average Humidity 69    
Maximum Humidity 69    
Minimum Humidity 69    
Precipitation  
Precipitation 0.00 in - - ()
Sea Level Pressure  
Sea Level Pressure 30.39 in    
Wind  
Wind Speed 7 mph (NNE)    
Max Wind Speed 14 mph    
Max Gust Speed -    
Visibility 10 miles    
Events      
Averages and records for this station are not official NWS values.
T = Trace of Precipitation, MM = Missing Value Source: NWS Daily Summary

Daily Weather History Graph

Daily Weather History Graph

Search for Another Location

Airport:

Trip Planner

Search our weather history database for the weather conditions in past years. The results will help you decide how hot, cold, wet, or windy it might be!

Date:

Astronomy

Jan. 19, 2013 Rise Set
Actual Time 11:21 AM AKST 3:15 PM AKST
Civil Twilight 9:50 AM AKST 4:46 PM AKST
Nautical Twilight 8:32 AM AKST 6:03 PM AKST
Astronomical Twilight 7:25 AM AKST 7:11 PM AKST
Moon 10:37 AM AKST (1/19) 4:08 AM AKST (1/19)
Length of Visible Light 6h 56m
Length of Day
3h 54m
First Quarter, 58% of the Moon is Illuminated
Jan 19
First Quarter
Jan 26
Full
Feb 3
Last Quarter
Feb 9
New
Feb 17
First Quarter

Hourly Weather History & Observations

Time (AKST) Temp. Windchill Dew Point Humidity Pressure Visibility Wind Dir Wind Speed Gust Speed Precip Events Conditions
12:16 AM -25.6 °F -49.2 °F - N/A% 30.51 in 10.0 mi NNE 11.5 mph - N/A   Clear
12:36 AM -25.6 °F -50.2 °F - N/A% 30.51 in 10.0 mi NNE 12.7 mph - N/A   Clear
12:56 AM -25.6 °F -49.2 °F - N/A% 30.51 in 10.0 mi NNE 11.5 mph - N/A   Clear
1:16 AM -23.8 °F -48.0 °F - N/A% 30.50 in 10.0 mi NNE 12.7 mph - N/A   Clear
1:36 AM -23.8 °F -48.0 °F - N/A% 30.51 in 10.0 mi NNE 12.7 mph - N/A   Clear
1:56 AM -23.8 °F -48.9 °F - N/A% 30.50 in 10.0 mi NNE 13.8 mph - N/A   Clear
2:16 AM -23.8 °F -48.0 °F - N/A% 30.50 in 10.0 mi NNE 12.7 mph - N/A   Clear
2:36 AM -23.8 °F -48.0 °F - N/A% 30.50 in 10.0 mi NNE 12.7 mph - N/A   Clear
3:16 AM -23.8 °F -44.5 °F - N/A% 30.51 in 10.0 mi NNE 9.2 mph - N/A   Clear
3:36 AM -25.6 °F -46.8 °F - N/A% 30.50 in 10.0 mi NNE 9.2 mph - N/A   Clear
3:56 AM -23.8 °F -45.8 °F - N/A% 30.50 in 10.0 mi NNE 10.4 mph - N/A   Clear
4:16 AM -25.6 °F -48.0 °F - N/A% 30.50 in 10.0 mi NNE 10.4 mph - N/A   Clear
4:36 AM -25.6 °F -43.8 °F - N/A% 30.50 in 10.0 mi NNE 6.9 mph - N/A   Clear
4:56 AM -25.6 °F -46.8 °F - N/A% 30.50 in 10.0 mi NNE 9.2 mph - N/A   Clear
5:16 AM -27.4 °F -49.0 °F - N/A% 30.49 in 10.0 mi NNE 9.2 mph - N/A   Clear
5:36 AM -25.6 °F -46.8 °F - N/A% 30.49 in 10.0 mi NNE 9.2 mph - N/A   Clear
5:56 AM -25.6 °F -46.8 °F - N/A% 30.49 in 10.0 mi NNE 9.2 mph - N/A   Clear
6:16 AM -25.6 °F -46.8 °F - N/A% 30.48 in 10.0 mi NNE 9.2 mph - N/A   Clear
6:36 AM -25.6 °F -45.4 °F - N/A% 30.48 in 10.0 mi NNE 8.1 mph - N/A   Clear
6:56 AM -25.6 °F -45.4 °F - N/A% 30.48 in 10.0 mi NNE 8.1 mph - N/A   Clear
7:16 AM -25.6 °F -45.4 °F - N/A% 30.48 in 10.0 mi NNE 8.1 mph - N/A   Clear
7:36 AM -27.4 °F - - N/A% 30.47 in 10.0 mi Calm Calm - N/A   Clear
7:56 AM -27.4 °F - - N/A% 30.47 in 8.0 mi Calm Calm - N/A   Clear
8:16 AM -27.4 °F -44.1 °F - N/A% 30.47 in 10.0 mi NNE 5.8 mph - N/A   Clear
8:36 AM -27.4 °F -44.1 °F - N/A% 30.47 in 10.0 mi North 5.8 mph - N/A   Clear
8:56 AM -27.4 °F - - N/A% 30.47 in 10.0 mi Calm Calm - N/A   Clear
9:16 AM -25.6 °F -37.1 °F - N/A% 30.46 in 10.0 mi North 3.5 mph - N/A   Clear
9:36 AM -25.6 °F - - N/A% 30.46 in 10.0 mi Calm Calm - N/A   Clear
9:56 AM -27.4 °F - - N/A% 30.45 in 8.0 mi Calm Calm - N/A   Clear
10:16 AM -27.4 °F -41.9 °F - N/A% 30.45 in 10.0 mi North 4.6 mph - N/A   Clear
10:36 AM -25.6 °F - - N/A% 30.45 in 9.0 mi Calm Calm - N/A   Clear
10:56 AM -25.6 °F -37.1 °F - N/A% 30.44 in 9.0 mi NNE 3.5 mph - N/A   Clear
11:16 AM -25.6 °F -37.1 °F - N/A% 30.43 in 7.0 mi North 3.5 mph - N/A   Clear
11:36 AM -25.6 °F -39.8 °F - N/A% 30.43 in 9.0 mi North 4.6 mph - N/A   Clear
11:56 AM -27.4 °F -39.2 °F - N/A% 30.42 in 8.0 mi North 3.5 mph - N/A   Clear
12:16 PM -27.4 °F -41.9 °F - N/A% 30.42 in 10.0 mi North 4.6 mph - N/A   Clear
12:36 PM -29.2 °F -48.1 °F - N/A% 30.41 in 10.0 mi NNE 6.9 mph - N/A   Clear
12:56 PM -29.2 °F -48.1 °F - N/A% 30.41 in 10.0 mi NNE 6.9 mph - N/A   Clear
1:16 PM -27.4 °F -44.1 °F - N/A% 30.40 in 5.0 mi NNE 5.8 mph - N/A   Clear
1:36 PM -27.4 °F -39.2 °F - N/A% 30.40 in 9.0 mi North 3.5 mph - N/A   Clear
1:56 PM -29.2 °F -41.2 °F - N/A% 30.40 in 10.0 mi North 3.5 mph - N/A   Clear
2:16 PM -27.4 °F - - N/A% 30.39 in 6.0 mi Calm Calm - N/A   Clear
2:36 PM -27.4 °F - - N/A% 30.38 in 10.0 mi Calm Calm - N/A   Clear
2:56 PM -27.4 °F - - N/A% 30.37 in 10.0 mi Calm Calm - N/A   Clear
3:16 PM -27.4 °F - - N/A% 30.36 in 9.0 mi Calm Calm - N/A   Clear
3:36 PM -31.0 °F - - N/A% 30.35 in 10.0 mi Calm Calm - N/A   Clear
3:56 PM -31.0 °F - - N/A% 30.35 in 9.0 mi Calm Calm - N/A   Clear
4:16 PM -29.2 °F - - N/A% 30.34 in 10.0 mi Calm Calm - N/A   Clear
4:36 PM -29.2 °F - - N/A% 30.33 in 10.0 mi Calm Calm - N/A   Clear
4:56 PM -29.2 °F - - N/A% 30.32 in 10.0 mi Calm Calm - N/A   Clear
5:16 PM -29.2 °F -41.2 °F - N/A% 30.31 in 10.0 mi North 3.5 mph - N/A   Clear
5:36 PM -29.2 °F - - N/A% 30.31 in 10.0 mi Calm Calm - N/A   Clear
5:56 PM -29.2 °F - - N/A% 30.30 in 10.0 mi Calm Calm - N/A   Clear
6:16 PM -27.4 °F -39.2 °F - N/A% 30.30 in 10.0 mi North 3.5 mph - N/A   Clear
6:36 PM -27.4 °F - - N/A% 30.29 in 10.0 mi Calm Calm - N/A   Clear
6:56 PM -29.2 °F - - N/A% 30.28 in 10.0 mi Calm Calm - N/A   Clear
7:16 PM -27.4 °F - - N/A% 30.28 in 10.0 mi Calm Calm - N/A   Clear
7:36 PM -27.4 °F - - N/A% 30.27 in 10.0 mi Calm Calm - N/A   Clear
7:56 PM -27.4 °F -39.2 °F - N/A% 30.26 in 10.0 mi North 3.5 mph - N/A   Clear
8:16 PM -25.6 °F -37.1 °F - N/A% 30.25 in 8.0 mi North 3.5 mph - N/A   Clear
8:36 PM -27.4 °F -41.9 °F - N/A% 30.25 in 10.0 mi North 4.6 mph - N/A   Clear
8:56 PM -25.6 °F -39.8 °F - N/A% 30.24 in 10.0 mi North 4.6 mph - N/A   Clear
9:16 PM -23.8 °F -35.0 °F - N/A% 30.24 in 10.0 mi North 3.5 mph - N/A   Clear
9:36 PM -27.4 °F - - N/A% 30.23 in 10.0 mi Calm Calm - N/A   Clear
9:56 PM -23.8 °F -39.8 °F - N/A% 30.23 in 10.0 mi North 5.8 mph - N/A   Clear
10:16 PM -22.0 °F -33.0 °F -29.2 °F 69% 30.22 in 10.0 mi North 3.5 mph - N/A   Clear
10:36 PM -23.8 °F -37.7 °F - N/A% 30.22 in 10.0 mi North 4.6 mph - N/A   Clear
10:56 PM -25.6 °F -39.8 °F - N/A% 30.23 in 10.0 mi North 4.6 mph - N/A   Clear
11:16 PM -25.6 °F - - N/A% 30.23 in 10.0 mi Calm Calm - N/A   Clear
11:36 PM -23.8 °F - - N/A% 30.23 in 10.0 mi Calm Calm - N/A   Clear
11:56 PM -23.8 °F - - N/A% 30.22 in 10.0 mi Calm Calm - N/A   Clear